Find Starlink 3245

NORAD ID: 50170 Int'l Des: 2021-125 Owner: SPXS Country: US Constellation: starlink operational
LEOCIRCULAR

現在のビュー

3D地球を読み込み中...

About Starlink 3245

Starlink 3245 (NORAD 50170) is a starlink constellation satellite (v1.5) launched Dec 18, 2021 by SPXS of US. It operates in LEO, CIRCULAR orbit with a mass of 290.00 kg.

次回通過

Passes for default location (London). Set your location on the main map for personalized predictions.

高度履歴

Loading altitude history...

軌道要素

1 50170U 21125Q 26221.86529013 -.00000246 00000-0 38479-5 0 9990
2 50170 53.1590 275.6381 0001084 81.3732 278.7392 15.31699921259793
Epoch: Aug 9, 2026 • Age: 14 hours

現在のステータス

高度 476.5 km
遠地点 / 近地点 N/A
速度 7.63 km/s
衛星直下点 52.95°N, 133.8°W
打ち上げ日 Dec 18, 2021
運用期間 4.6 years
タイプ internet

技術仕様

分類 Payload
質量 290.00 kg
乾燥質量 270.00 kg
総質量 290.00 kg
長さ 0.20 m
直径 2.80 m
スパン 9.00 m
形状 Box + pan
製造者 SPXS
バスタイプ Starlink
フェーズステータス In Orbit
所有者/国 SPXS/US

Most Searched